owner,sensor,date,latitude,longitude,vertical_datum,wind_speed,wind_to_direction,wind_speed_of_gust,qcFlag 
WAVCIS,ioos:station:WAVCIS:CSI06:1,2009-01-01T00:00:00Z,28.8667,-90.4833,10.0,8.47,22.0,,'11111222,11111222,99999999' 
WAVCIS,ioos:station:WAVCIS:CSI06:1,2009-01-01T01:00:00Z,28.8667,-90.4833,10.0,9.63,26.0,,'11111222,11111222,99999999' 
WAVCIS,ioos:station:WAVCIS:CSI06:1,2009-01-01T02:00:00Z,28.8667,-90.4833,10.0,10.5,28.0,,'11111222,11111222,99999999' 
WAVCIS,ioos:station:WAVCIS:CSI06:1,2009-01-01T03:00:00Z,28.8667,-90.4833,10.0,10.94,34.0,,'11111222,11111222,99999999' 
WAVCIS,ioos:station:WAVCIS:CSI06:1,2009-01-01T04:00:00Z,28.8667,-90.4833,10.0,11.85,46.0,,'11111222,11111222,99999999' 
WAVCIS,ioos:station:WAVCIS:CSI06:1,2009-01-01T05:00:00Z,28.8667,-90.4833,10.0,11.47,51.0,,'11111222,11111222,99999999' 
WAVCIS,ioos:station:WAVCIS:CSI06:1,2009-01-01T06:00:00Z,28.8667,-90.4833,10.0,10.81,48.0,,'11111222,11111222,99999999' 
WAVCIS,ioos:station:WAVCIS:CSI06:1,2009-01-01T07:00:00Z,28.8667,-90.4833,10.0,11.57,60.0,,'11111222,11111222,99999999' 
WAVCIS,ioos:station:WAVCIS:CSI06:1,2009-01-01T08:00:00Z,28.8667,-90.4833,10.0,11.38,71.0,,'11111222,11111222,99999999' 
WAVCIS,ioos:station:WAVCIS:CSI06:1,2009-01-01T09:00:00Z,28.8667,-90.4833,10.0,11.2,71.0,,'11111222,11111222,99999999' 
WAVCIS,ioos:station:WAVCIS:CSI06:1,2009-01-01T10:00:00Z,28.8667,-90.4833,10.0,10.81,72.0,,'11111222,11111222,99999999' 
WAVCIS,ioos:station:WAVCIS:CSI06:1,2009-01-01T11:00:00Z,28.8667,-90.4833,10.0,11.37,72.0,,'11111222,11111222,99999999' 
WAVCIS,ioos:station:WAVCIS:CSI06:1,2009-01-01T12:00:00Z,28.8667,-90.4833,10.0,10.09,73.0,,'11111222,11111222,99999999' 
WAVCIS,ioos:station:WAVCIS:CSI06:1,2009-01-01T13:00:00Z,28.8667,-90.4833,10.0,9.49,70.0,,'11111222,11111222,99999999' 
WAVCIS,ioos:station:WAVCIS:CSI06:1,2009-01-01T14:00:00Z,28.8667,-90.4833,10.0,9.17,73.0,,'11111222,11111222,99999999' 
WAVCIS,ioos:station:WAVCIS:CSI06:1,2009-01-01T15:00:00Z,28.8667,-90.4833,10.0,8.85,83.0,,'11111222,11111222,99999999' 
WAVCIS,ioos:station:WAVCIS:CSI06:1,2009-01-01T16:00:00Z,28.8667,-90.4833,10.0,7.74,92.0,,'11111222,11111222,99999999' 
WAVCIS,ioos:station:WAVCIS:CSI06:1,2009-01-01T17:00:00Z,28.8667,-90.4833,10.0,7.04,130.0,,'11111222,11111222,99999999' 
WAVCIS,ioos:station:WAVCIS:CSI06:1,2009-01-01T18:00:00Z,28.8667,-90.4833,10.0,5.33,143.0,,'11111222,11111222,99999999' 
WAVCIS,ioos:station:WAVCIS:CSI06:1,2009-01-01T19:00:00Z,28.8667,-90.4833,10.0,2.511,134.0,,'11111222,11111222,99999999' 
WAVCIS,ioos:station:WAVCIS:CSI06:1,2009-01-01T20:00:00Z,28.8667,-90.4833,10.0,2.994,114.0,,'11111222,11111222,99999999' 
WAVCIS,ioos:station:WAVCIS:CSI06:1,2009-01-01T21:00:00Z,28.8667,-90.4833,10.0,2.814,54.0,,'11111222,11111222,99999999' 
WAVCIS,ioos:station:WAVCIS:CSI06:1,2009-01-01T22:00:00Z,28.8667,-90.4833,10.0,3.561,102.0,,'11111222,11111222,99999999' 
WAVCIS,ioos:station:WAVCIS:CSI06:1,2009-01-01T23:00:00Z,28.8667,-90.4833,10.0,3.479,113.0,,'11111222,11111222,99999999' 
WAVCIS,ioos:station:WAVCIS:CSI06:1,2009-01-02T00:00:00Z,28.8667,-90.4833,10.0,5.768,89.0,,'11111222,11111222,99999999' 
WAVCIS,ioos:station:WAVCIS:CSI06:1,2009-01-02T01:00:00Z,28.8667,-90.4833,10.0,6.009,93.0,,'11111222,11111222,99999999' 
WAVCIS,ioos:station:WAVCIS:CSI06:1,2009-01-02T02:00:00Z,28.8667,-90.4833,10.0,6.593,103.0,,'11111222,11111222,99999999' 
WAVCIS,ioos:station:WAVCIS:CSI06:1,2009-01-02T03:00:00Z,28.8667,-90.4833,10.0,6.503,108.0,,'11111222,11111222,99999999' 
WAVCIS,ioos:station:WAVCIS:CSI06:1,2009-01-02T04:00:00Z,28.8667,-90.4833,10.0,8.56,121.0,,'11111222,11111222,99999999' 
WAVCIS,ioos:station:WAVCIS:CSI06:1,2009-01-02T05:00:00Z,28.8667,-90.4833,10.0,8.71,136.0,,'11111222,11111222,99999999' 
WAVCIS,ioos:station:WAVCIS:CSI06:1,2009-01-02T06:00:00Z,28.8667,-90.4833,10.0,7.66,136.0,,'11111222,11111222,99999999' 
WAVCIS,ioos:station:WAVCIS:CSI06:1,2009-01-02T07:00:00Z,28.8667,-90.4833,10.0,6.901,143.0,,'11111222,11111222,99999999' 
WAVCIS,ioos:station:WAVCIS:CSI06:1,2009-01-02T08:00:00Z,28.8667,-90.4833,10.0,5.392,185.0,,'11111222,11111222,99999999' 
WAVCIS,ioos:station:WAVCIS:CSI06:1,2009-01-02T09:00:00Z,28.8667,-90.4833,10.0,3.802,197.0,,'11111222,11111222,99999999' 
WAVCIS,ioos:station:WAVCIS:CSI06:1,2009-01-02T10:00:00Z,28.8667,-90.4833,10.0,4.848,206.0,,'11111222,11111222,99999999' 
WAVCIS,ioos:station:WAVCIS:CSI06:1,2009-01-02T11:00:00Z,28.8667,-90.4833,10.0,4.239,211.0,,'11111222,11111222,99999999' 
WAVCIS,ioos:station:WAVCIS:CSI06:1,2009-01-02T12:00:00Z,28.8667,-90.4833,10.0,3.454,210.0,,'11111222,11111222,99999999' 
WAVCIS,ioos:station:WAVCIS:CSI06:1,2009-01-02T13:00:00Z,28.8667,-90.4833,10.0,3.647,209.0,,'11111222,11111222,99999999' 
WAVCIS,ioos:station:WAVCIS:CSI06:1,2009-01-02T14:00:00Z,28.8667,-90.4833,10.0,2.613,226.0,,'11111222,11111222,99999999' 
WAVCIS,ioos:station:WAVCIS:CSI06:1,2009-01-02T15:00:00Z,28.8667,-90.4833,10.0,2.411,195.0,,'11111222,11111222,99999999' 
WAVCIS,ioos:station:WAVCIS:CSI06:1,2009-01-02T16:00:00Z,28.8667,-90.4833,10.0,3.326,187.0,,'11111222,11111222,99999999' 
WAVCIS,ioos:station:WAVCIS:CSI06:1,2009-01-02T17:00:00Z,28.8667,-90.4833,10.0,4.373,197.0,,'11111222,11111222,99999999' 
WAVCIS,ioos:station:WAVCIS:CSI06:1,2009-01-02T18:00:00Z,28.8667,-90.4833,10.0,5.455,193.0,,'11111222,11111222,99999999' 
WAVCIS,ioos:station:WAVCIS:CSI06:1,2009-01-02T19:00:00Z,28.8667,-90.4833,10.0,4.897,197.0,,'11111222,11111222,99999999' 
WAVCIS,ioos:station:WAVCIS:CSI06:1,2009-01-02T20:00:00Z,28.8667,-90.4833,10.0,4.06,199.0,,'11111222,11111222,99999999' 
WAVCIS,ioos:station:WAVCIS:CSI06:1,2009-01-02T21:00:00Z,28.8667,-90.4833,10.0,3.927,207.0,,'11111222,11111222,99999999' 
WAVCIS,ioos:station:WAVCIS:CSI06:1,2009-01-02T22:00:00Z,28.8667,-90.4833,10.0,3.954,196.0,,'11111222,11111222,99999999' 
WAVCIS,ioos:station:WAVCIS:CSI06:1,2009-01-02T23:00:00Z,28.8667,-90.4833,10.0,4.917,183.0,,'11111222,11111222,99999999' 
WAVCIS,ioos:station:WAVCIS:CSI06:1,2009-01-03T00:00:00Z,28.8667,-90.4833,10.0,4.943,188.0,,'11111222,11111222,99999999' 
WAVCIS,ioos:station:WAVCIS:CSI06:1,2009-01-03T01:00:00Z,28.8667,-90.4833,10.0,5.406,184.0,,'11111222,11111222,99999999' 
WAVCIS,ioos:station:WAVCIS:CSI06:1,2009-01-03T02:00:00Z,28.8667,-90.4833,10.0,5.632,182.0,,'11111222,11111222,99999999' 
WAVCIS,ioos:station:WAVCIS:CSI06:1,2009-01-03T03:00:00Z,28.8667,-90.4833,10.0,5.945,165.0,,'11111222,11111222,99999999' 
WAVCIS,ioos:station:WAVCIS:CSI06:1,2009-01-03T04:00:00Z,28.8667,-90.4833,10.0,6.551,169.0,,'11111222,11111222,99999999' 
WAVCIS,ioos:station:WAVCIS:CSI06:1,2009-01-03T05:00:00Z,28.8667,-90.4833,10.0,6.445,163.0,,'11111222,11111222,99999999' 
WAVCIS,ioos:station:WAVCIS:CSI06:1,2009-01-03T06:00:00Z,28.8667,-90.4833,10.0,6.828,165.0,,'11111222,11111222,99999999' 
WAVCIS,ioos:station:WAVCIS:CSI06:1,2009-01-03T07:00:00Z,28.8667,-90.4833,10.0,7.18,173.0,,'11111222,11111222,99999999' 
WAVCIS,ioos:station:WAVCIS:CSI06:1,2009-01-03T08:00:00Z,28.8667,-90.4833,10.0,6.596,167.0,,'11111222,11111222,99999999' 
WAVCIS,ioos:station:WAVCIS:CSI06:1,2009-01-03T09:00:00Z,28.8667,-90.4833,10.0,7.22,168.0,,'11111222,11111222,99999999' 
WAVCIS,ioos:station:WAVCIS:CSI06:1,2009-01-03T10:00:00Z,28.8667,-90.4833,10.0,6.29,163.0,,'11111222,11111222,99999999' 
WAVCIS,ioos:station:WAVCIS:CSI06:1,2009-01-03T11:00:00Z,28.8667,-90.4833,10.0,4.931,164.0,,'11111222,11111222,99999999' 
WAVCIS,ioos:station:WAVCIS:CSI06:1,2009-01-03T12:00:00Z,28.8667,-90.4833,10.0,6.213,161.0,,'11111222,11111222,99999999' 
WAVCIS,ioos:station:WAVCIS:CSI06:1,2009-01-03T13:00:00Z,28.8667,-90.4833,10.0,6.052,164.0,,'11111222,11111222,99999999' 
WAVCIS,ioos:station:WAVCIS:CSI06:1,2009-01-03T14:00:00Z,28.8667,-90.4833,10.0,6.427,159.0,,'11111222,11111222,99999999' 
WAVCIS,ioos:station:WAVCIS:CSI06:1,2009-01-03T15:00:00Z,28.8667,-90.4833,10.0,6.241,160.0,,'11111222,11111222,99999999' 
WAVCIS,ioos:station:WAVCIS:CSI06:1,2009-01-03T16:00:00Z,28.8667,-90.4833,10.0,7.13,160.0,,'11111222,11111222,99999999' 
WAVCIS,ioos:station:WAVCIS:CSI06:1,2009-01-03T17:00:00Z,28.8667,-90.4833,10.0,6.29,159.0,,'11111222,11111222,99999999' 
WAVCIS,ioos:station:WAVCIS:CSI06:1,2009-01-03T18:00:00Z,28.8667,-90.4833,10.0,7.01,156.0,,'11111222,11111222,99999999' 
WAVCIS,ioos:station:WAVCIS:CSI06:1,2009-01-03T19:00:00Z,28.8667,-90.4833,10.0,3.058,198.0,,'11111222,11111222,99999999' 
WAVCIS,ioos:station:WAVCIS:CSI06:1,2009-01-03T20:00:00Z,28.8667,-90.4833,10.0,2.221,265.0,,'11111222,11111222,99999999' 
WAVCIS,ioos:station:WAVCIS:CSI06:1,2009-01-03T21:00:00Z,28.8667,-90.4833,10.0,4.236,215.0,,'11111222,11111222,99999999' 
WAVCIS,ioos:station:WAVCIS:CSI06:1,2009-01-03T22:00:00Z,28.8667,-90.4833,10.0,4.969,93.0,,'11111222,11111222,99999999' 
WAVCIS,ioos:station:WAVCIS:CSI06:1,2009-01-03T23:00:00Z,28.8667,-90.4833,10.0,7.47,155.0,,'11111222,11111222,99999999' 
WAVCIS,ioos:station:WAVCIS:CSI06:1,2009-01-04T00:00:00Z,28.8667,-90.4833,10.0,8.23,177.0,,'11111222,11111222,99999999' 
WAVCIS,ioos:station:WAVCIS:CSI06:1,2009-01-04T01:00:00Z,28.8667,-90.4833,10.0,9.08,182.0,,'11111222,11111222,99999999' 
WAVCIS,ioos:station:WAVCIS:CSI06:1,2009-01-04T02:00:00Z,28.8667,-90.4833,10.0,8.13,184.0,,'11111222,11111222,99999999' 
WAVCIS,ioos:station:WAVCIS:CSI06:1,2009-01-04T03:00:00Z,28.8667,-90.4833,10.0,7.94,184.0,,'11111222,11111222,99999999' 
WAVCIS,ioos:station:WAVCIS:CSI06:1,2009-01-04T04:00:00Z,28.8667,-90.4833,10.0,8.04,186.0,,'11111222,11111222,99999999' 
WAVCIS,ioos:station:WAVCIS:CSI06:1,2009-01-04T05:00:00Z,28.8667,-90.4833,10.0,6.086,179.0,,'11111222,11111222,99999999' 
WAVCIS,ioos:station:WAVCIS:CSI06:1,2009-01-04T06:00:00Z,28.8667,-90.4833,10.0,5.526,171.0,,'11111222,11111222,99999999' 
WAVCIS,ioos:station:WAVCIS:CSI06:1,2009-01-04T07:00:00Z,28.8667,-90.4833,10.0,5.63,158.0,,'11111222,11111222,99999999' 
WAVCIS,ioos:station:WAVCIS:CSI06:1,2009-01-04T08:00:00Z,28.8667,-90.4833,10.0,5.377,159.0,,'11111222,11111222,99999999' 
WAVCIS,ioos:station:WAVCIS:CSI06:1,2009-01-04T09:00:00Z,28.8667,-90.4833,10.0,5.42,147.0,,'11111222,11111222,99999999' 
WAVCIS,ioos:station:WAVCIS:CSI06:1,2009-01-04T10:00:00Z,28.8667,-90.4833,10.0,8.91,96.0,,'11111222,11111222,99999999' 
WAVCIS,ioos:station:WAVCIS:CSI06:1,2009-01-04T11:00:00Z,28.8667,-90.4833,10.0,8.45,110.0,,'11111222,11111222,99999999' 
WAVCIS,ioos:station:WAVCIS:CSI06:1,2009-01-04T12:00:00Z,28.8667,-90.4833,10.0,7.98,114.0,,'11111222,11111222,99999999' 
WAVCIS,ioos:station:WAVCIS:CSI06:1,2009-01-04T13:00:00Z,28.8667,-90.4833,10.0,6.521,112.0,,'11111222,11111222,99999999' 
WAVCIS,ioos:station:WAVCIS:CSI06:1,2009-01-04T14:00:00Z,28.8667,-90.4833,10.0,6.909,108.0,,'11111222,11111222,99999999' 
WAVCIS,ioos:station:WAVCIS:CSI06:1,2009-01-04T15:00:00Z,28.8667,-90.4833,10.0,6.509,111.0,,'11111222,11111222,99999999' 
WAVCIS,ioos:station:WAVCIS:CSI06:1,2009-01-04T16:00:00Z,28.8667,-90.4833,10.0,6.212,122.0,,'11111222,11111222,99999999' 
WAVCIS,ioos:station:WAVCIS:CSI06:1,2009-01-04T17:00:00Z,28.8667,-90.4833,10.0,5.752,128.0,,'11111222,11111222,99999999' 
WAVCIS,ioos:station:WAVCIS:CSI06:1,2009-01-04T18:00:00Z,28.8667,-90.4833,10.0,4.99,126.0,,'11111222,11111222,99999999' 
WAVCIS,ioos:station:WAVCIS:CSI06:1,2009-01-04T19:00:00Z,28.8667,-90.4833,10.0,5.271,125.0,,'11111222,11111222,99999999' 
WAVCIS,ioos:station:WAVCIS:CSI06:1,2009-01-04T20:00:00Z,28.8667,-90.4833,10.0,5.54,129.0,,'11111222,11111222,99999999' 
WAVCIS,ioos:station:WAVCIS:CSI06:1,2009-01-04T21:00:00Z,28.8667,-90.4833,10.0,6.233,133.0,,'11111222,11111222,99999999' 
WAVCIS,ioos:station:WAVCIS:CSI06:1,2009-01-04T22:00:00Z,28.8667,-90.4833,10.0,6.444,135.0,,'11111222,11111222,99999999' 
WAVCIS,ioos:station:WAVCIS:CSI06:1,2009-01-04T23:00:00Z,28.8667,-90.4833,10.0,5.975,128.0,,'11111222,11111222,99999999' 
WAVCIS,ioos:station:WAVCIS:CSI06:1,2009-01-05T00:00:00Z,28.8667,-90.4833,10.0,6.291,135.0,,'11111222,11111222,99999999' 
WAVCIS,ioos:station:WAVCIS:CSI06:1,2009-01-05T01:00:00Z,28.8667,-90.4833,10.0,5.388,128.0,,'11111222,11111222,99999999' 
WAVCIS,ioos:station:WAVCIS:CSI06:1,2009-01-05T02:00:00Z,28.8667,-90.4833,10.0,5.872,133.0,,'11111222,11111222,99999999' 
WAVCIS,ioos:station:WAVCIS:CSI06:1,2009-01-05T03:00:00Z,28.8667,-90.4833,10.0,4.732,133.0,,'11111222,11111222,99999999' 
WAVCIS,ioos:station:WAVCIS:CSI06:1,2009-01-05T04:00:00Z,28.8667,-90.4833,10.0,5.175,133.0,,'11111222,11111222,99999999' 
WAVCIS,ioos:station:WAVCIS:CSI06:1,2009-01-05T05:00:00Z,28.8667,-90.4833,10.0,5.002,132.0,,'11111222,11111222,99999999' 
WAVCIS,ioos:station:WAVCIS:CSI06:1,2009-01-05T06:00:00Z,28.8667,-90.4833,10.0,4.619,142.0,,'11111222,11111222,99999999' 
WAVCIS,ioos:station:WAVCIS:CSI06:1,2009-01-05T07:00:00Z,28.8667,-90.4833,10.0,5.714,140.0,,'11111222,11111222,99999999' 
WAVCIS,ioos:station:WAVCIS:CSI06:1,2009-01-05T08:00:00Z,28.8667,-90.4833,10.0,5.382,145.0,,'11111222,11111222,99999999' 
WAVCIS,ioos:station:WAVCIS:CSI06:1,2009-01-05T09:00:00Z,28.8667,-90.4833,10.0,3.453,139.0,,'11111222,11111222,99999999' 
WAVCIS,ioos:station:WAVCIS:CSI06:1,2009-01-05T10:00:00Z,28.8667,-90.4833,10.0,6.276,139.0,,'11111222,11111222,99999999' 
WAVCIS,ioos:station:WAVCIS:CSI06:1,2009-01-05T11:00:00Z,28.8667,-90.4833,10.0,5.828,156.0,,'11111222,11111222,99999999' 
WAVCIS,ioos:station:WAVCIS:CSI06:1,2009-01-05T12:00:00Z,28.8667,-90.4833,10.0,6.165,151.0,,'11111222,11111222,99999999' 
WAVCIS,ioos:station:WAVCIS:CSI06:1,2009-01-05T13:00:00Z,28.8667,-90.4833,10.0,5.49,154.0,,'11111222,11111222,99999999' 
WAVCIS,ioos:station:WAVCIS:CSI06:1,2009-01-05T14:00:00Z,28.8667,-90.4833,10.0,6.959,153.0,,'11111222,11111222,99999999' 
WAVCIS,ioos:station:WAVCIS:CSI06:1,2009-01-05T15:00:00Z,28.8667,-90.4833,10.0,6.775,151.0,,'11111222,11111222,99999999' 
WAVCIS,ioos:station:WAVCIS:CSI06:1,2009-01-05T16:00:00Z,28.8667,-90.4833,10.0,6.288,161.0,,'11111222,11111222,99999999' 
WAVCIS,ioos:station:WAVCIS:CSI06:1,2009-01-05T17:00:00Z,28.8667,-90.4833,10.0,7.35,162.0,,'11111222,11111222,99999999' 
WAVCIS,ioos:station:WAVCIS:CSI06:1,2009-01-05T18:00:00Z,28.8667,-90.4833,10.0,7.04,159.0,,'11111222,11111222,99999999' 
WAVCIS,ioos:station:WAVCIS:CSI06:1,2009-01-05T19:00:00Z,28.8667,-90.4833,10.0,7.17,168.0,,'11111222,11111222,99999999' 
WAVCIS,ioos:station:WAVCIS:CSI06:1,2009-01-05T20:00:00Z,28.8667,-90.4833,10.0,5.717,181.0,,'11111222,11111222,99999999' 
WAVCIS,ioos:station:WAVCIS:CSI06:1,2009-01-05T21:00:00Z,28.8667,-90.4833,10.0,6.041,174.0,,'11111222,11111222,99999999' 
WAVCIS,ioos:station:WAVCIS:CSI06:1,2009-01-05T22:00:00Z,28.8667,-90.4833,10.0,5.325,176.0,,'11111222,11111222,99999999' 
WAVCIS,ioos:station:WAVCIS:CSI06:1,2009-01-05T23:00:00Z,28.8667,-90.4833,10.0,5.873,175.0,,'11111222,11111222,99999999' 
WAVCIS,ioos:station:WAVCIS:CSI06:1,2009-01-06T00:00:00Z,28.8667,-90.4833,10.0,6.039,180.0,,'11111222,11111222,99999999' 
WAVCIS,ioos:station:WAVCIS:CSI06:1,2009-01-06T01:00:00Z,28.8667,-90.4833,10.0,5.39,185.0,,'11111222,11111222,99999999' 
WAVCIS,ioos:station:WAVCIS:CSI06:1,2009-01-06T02:00:00Z,28.8667,-90.4833,10.0,6.588,179.0,,'11111222,11111222,99999999' 
WAVCIS,ioos:station:WAVCIS:CSI06:1,2009-01-06T03:00:00Z,28.8667,-90.4833,10.0,7.59,172.0,,'11111222,11111222,99999999' 
WAVCIS,ioos:station:WAVCIS:CSI06:1,2009-01-06T04:00:00Z,28.8667,-90.4833,10.0,7.19,179.0,,'11111222,11111222,99999999' 
WAVCIS,ioos:station:WAVCIS:CSI06:1,2009-01-06T05:00:00Z,28.8667,-90.4833,10.0,7.46,182.0,,'11111222,11111222,99999999' 
WAVCIS,ioos:station:WAVCIS:CSI06:1,2009-01-06T06:00:00Z,28.8667,-90.4833,10.0,8.68,180.0,,'11111222,11111222,99999999' 
WAVCIS,ioos:station:WAVCIS:CSI06:1,2009-01-06T07:00:00Z,28.8667,-90.4833,10.0,9.82,183.0,,'11111222,11111222,99999999' 
WAVCIS,ioos:station:WAVCIS:CSI06:1,2009-01-06T08:00:00Z,28.8667,-90.4833,10.0,8.01,183.0,,'11111222,11111222,99999999' 
WAVCIS,ioos:station:WAVCIS:CSI06:1,2009-01-06T09:00:00Z,28.8667,-90.4833,10.0,8.81,194.0,,'11111222,11111222,99999999' 
WAVCIS,ioos:station:WAVCIS:CSI06:1,2009-01-06T10:00:00Z,28.8667,-90.4833,10.0,10.84,177.0,,'11111222,11111222,99999999' 
WAVCIS,ioos:station:WAVCIS:CSI06:1,2009-01-06T11:00:00Z,28.8667,-90.4833,10.0,10.15,176.0,,'11111222,11111222,99999999' 
WAVCIS,ioos:station:WAVCIS:CSI06:1,2009-01-06T12:00:00Z,28.8667,-90.4833,10.0,9.15,182.0,,'11111222,11111222,99999999' 
WAVCIS,ioos:station:WAVCIS:CSI06:1,2009-01-06T13:00:00Z,28.8667,-90.4833,10.0,9.8,175.0,,'11111222,11111222,99999999' 
WAVCIS,ioos:station:WAVCIS:CSI06:1,2009-01-06T14:00:00Z,28.8667,-90.4833,10.0,10.07,182.0,,'11111222,11111222,99999999' 
WAVCIS,ioos:station:WAVCIS:CSI06:1,2009-01-06T15:00:00Z,28.8667,-90.4833,10.0,10.9,181.0,,'11111222,11111222,99999999' 
WAVCIS,ioos:station:WAVCIS:CSI06:1,2009-01-06T16:00:00Z,28.8667,-90.4833,10.0,9.97,199.0,,'11111222,11111222,99999999' 
WAVCIS,ioos:station:WAVCIS:CSI06:1,2009-01-06T17:00:00Z,28.8667,-90.4833,10.0,11.08,188.0,,'11111222,11111222,99999999' 
WAVCIS,ioos:station:WAVCIS:CSI06:1,2009-01-06T18:00:00Z,28.8667,-90.4833,10.0,11.53,185.0,,'11111222,11111222,99999999' 
WAVCIS,ioos:station:WAVCIS:CSI06:1,2009-01-06T19:00:00Z,28.8667,-90.4833,10.0,9.36,200.0,,'11111222,11111222,99999999' 
WAVCIS,ioos:station:WAVCIS:CSI06:1,2009-01-06T20:00:00Z,28.8667,-90.4833,10.0,9.99,194.0,,'11111222,11111222,99999999' 
WAVCIS,ioos:station:WAVCIS:CSI06:1,2009-01-06T21:00:00Z,28.8667,-90.4833,10.0,10.55,195.0,,'11111222,11111222,99999999' 
WAVCIS,ioos:station:WAVCIS:CSI06:1,2009-01-06T22:00:00Z,28.8667,-90.4833,10.0,8.66,206.0,,'11111222,11111222,99999999' 
WAVCIS,ioos:station:WAVCIS:CSI06:1,2009-01-06T23:00:00Z,28.8667,-90.4833,10.0,10.84,202.0,,'11111222,11111222,99999999' 
WAVCIS,ioos:station:WAVCIS:CSI06:1,2009-01-07T00:00:00Z,28.8667,-90.4833,10.0,10.7,207.0,,'11111222,11111222,99999999' 
WAVCIS,ioos:station:WAVCIS:CSI06:1,2009-01-07T01:00:00Z,28.8667,-90.4833,10.0,8.66,289.0,,'11111222,11111222,99999999' 
WAVCIS,ioos:station:WAVCIS:CSI06:1,2009-01-07T02:00:00Z,28.8667,-90.4833,10.0,8.52,294.0,,'11111222,11111222,99999999' 
WAVCIS,ioos:station:WAVCIS:CSI06:1,2009-01-07T03:00:00Z,28.8667,-90.4833,10.0,10.96,280.0,,'11111222,11111222,99999999' 
WAVCIS,ioos:station:WAVCIS:CSI06:1,2009-01-07T04:00:00Z,28.8667,-90.4833,10.0,15.79,284.0,,'11111222,11111222,99999999' 
WAVCIS,ioos:station:WAVCIS:CSI06:1,2009-01-07T05:00:00Z,28.8667,-90.4833,10.0,11.76,279.0,,'11111222,11111222,99999999' 
WAVCIS,ioos:station:WAVCIS:CSI06:1,2009-01-07T06:00:00Z,28.8667,-90.4833,10.0,11.32,281.0,,'11111222,11111222,99999999' 
WAVCIS,ioos:station:WAVCIS:CSI06:1,2009-01-07T07:00:00Z,28.8667,-90.4833,10.0,11.49,279.0,,'11111222,11111222,99999999' 
WAVCIS,ioos:station:WAVCIS:CSI06:1,2009-01-07T08:00:00Z,28.8667,-90.4833,10.0,11.63,274.0,,'11111222,11111222,99999999' 
WAVCIS,ioos:station:WAVCIS:CSI06:1,2009-01-07T09:00:00Z,28.8667,-90.4833,10.0,14.2,281.0,,'11111222,11111222,99999999' 
WAVCIS,ioos:station:WAVCIS:CSI06:1,2009-01-07T10:00:00Z,28.8667,-90.4833,10.0,16.44,289.0,,'11111222,11111222,99999999' 
WAVCIS,ioos:station:WAVCIS:CSI06:1,2009-01-07T11:00:00Z,28.8667,-90.4833,10.0,17.68,297.0,,'11111222,11111222,99999999' 
WAVCIS,ioos:station:WAVCIS:CSI06:1,2009-01-07T12:00:00Z,28.8667,-90.4833,10.0,16.61,298.0,,'11111222,11111222,99999999' 
WAVCIS,ioos:station:WAVCIS:CSI06:1,2009-01-07T13:00:00Z,28.8667,-90.4833,10.0,15.95,304.0,,'11111222,11111222,99999999' 
WAVCIS,ioos:station:WAVCIS:CSI06:1,2009-01-07T14:00:00Z,28.8667,-90.4833,10.0,13.8,319.0,,'11111222,11111222,99999999' 
WAVCIS,ioos:station:WAVCIS:CSI06:1,2009-01-07T15:00:00Z,28.8667,-90.4833,10.0,9.93,322.0,,'11111222,11111222,99999999' 
WAVCIS,ioos:station:WAVCIS:CSI06:1,2009-01-07T16:00:00Z,28.8667,-90.4833,10.0,8.01,329.0,,'11111222,11111222,99999999' 
WAVCIS,ioos:station:WAVCIS:CSI06:1,2009-01-07T17:00:00Z,28.8667,-90.4833,10.0,2.9,0.0,,'11111222,11111222,99999999' 
WAVCIS,ioos:station:WAVCIS:CSI06:1,2009-01-07T18:00:00Z,28.8667,-90.4833,10.0,3.348,5.0,,'11111222,11111222,99999999' 
WAVCIS,ioos:station:WAVCIS:CSI06:1,2009-01-07T19:00:00Z,28.8667,-90.4833,10.0,3.984,18.0,,'11111222,11111222,99999999' 
WAVCIS,ioos:station:WAVCIS:CSI06:1,2009-01-07T20:00:00Z,28.8667,-90.4833,10.0,3.832,330.0,,'11111222,11111222,99999999' 
WAVCIS,ioos:station:WAVCIS:CSI06:1,2009-01-07T21:00:00Z,28.8667,-90.4833,10.0,2.177,263.0,,'11111222,11111222,99999999' 
WAVCIS,ioos:station:WAVCIS:CSI06:1,2009-01-07T22:00:00Z,28.8667,-90.4833,10.0,5.229,219.0,,'11111222,11111222,99999999' 
WAVCIS,ioos:station:WAVCIS:CSI06:1,2009-01-07T23:00:00Z,28.8667,-90.4833,10.0,5.523,233.0,,'11111222,11111222,99999999' 
WAVCIS,ioos:station:WAVCIS:CSI06:1,2009-01-08T00:00:00Z,28.8667,-90.4833,10.0,5.701,239.0,,'11111222,11111222,99999999' 
WAVCIS,ioos:station:WAVCIS:CSI06:1,2009-01-08T01:00:00Z,28.8667,-90.4833,10.0,6.055,238.0,,'11111222,11111222,99999999' 
WAVCIS,ioos:station:WAVCIS:CSI06:1,2009-01-08T02:00:00Z,28.8667,-90.4833,10.0,6.96,227.0,,'11111222,11111222,99999999' 
WAVCIS,ioos:station:WAVCIS:CSI06:1,2009-01-08T03:00:00Z,28.8667,-90.4833,10.0,7.52,228.0,,'11111222,11111222,99999999' 
WAVCIS,ioos:station:WAVCIS:CSI06:1,2009-01-08T04:00:00Z,28.8667,-90.4833,10.0,7.55,233.0,,'11111222,11111222,99999999' 
WAVCIS,ioos:station:WAVCIS:CSI06:1,2009-01-08T05:00:00Z,28.8667,-90.4833,10.0,8.18,234.0,,'11111222,11111222,99999999' 
WAVCIS,ioos:station:WAVCIS:CSI06:1,2009-01-08T06:00:00Z,28.8667,-90.4833,10.0,8.72,238.0,,'11111222,11111222,99999999' 
WAVCIS,ioos:station:WAVCIS:CSI06:1,2009-01-08T07:00:00Z,28.8667,-90.4833,10.0,8.93,244.0,,'11111222,11111222,99999999' 
WAVCIS,ioos:station:WAVCIS:CSI06:1,2009-01-08T08:00:00Z,28.8667,-90.4833,10.0,8.82,250.0,,'11111222,11111222,99999999' 
WAVCIS,ioos:station:WAVCIS:CSI06:1,2009-01-08T09:00:00Z,28.8667,-90.4833,10.0,7.73,253.0,,'11111222,11111222,99999999' 
WAVCIS,ioos:station:WAVCIS:CSI06:1,2009-01-08T10:00:00Z,28.8667,-90.4833,10.0,7.95,253.0,,'11111222,11111222,99999999' 
WAVCIS,ioos:station:WAVCIS:CSI06:1,2009-01-08T11:00:00Z,28.8667,-90.4833,10.0,7.87,252.0,,'11111222,11111222,99999999' 
WAVCIS,ioos:station:WAVCIS:CSI06:1,2009-01-08T12:00:00Z,28.8667,-90.4833,10.0,7.16,254.0,,'11111222,11111222,99999999' 
WAVCIS,ioos:station:WAVCIS:CSI06:1,2009-01-08T13:00:00Z,28.8667,-90.4833,10.0,6.674,254.0,,'11111222,11111222,99999999' 
WAVCIS,ioos:station:WAVCIS:CSI06:1,2009-01-08T14:00:00Z,28.8667,-90.4833,10.0,5.806,253.0,,'11111222,11111222,99999999' 
WAVCIS,ioos:station:WAVCIS:CSI06:1,2009-01-08T15:00:00Z,28.8667,-90.4833,10.0,5.074,255.0,,'11111222,11111222,99999999' 
WAVCIS,ioos:station:WAVCIS:CSI06:1,2009-01-08T16:00:00Z,28.8667,-90.4833,10.0,5.227,252.0,,'11111222,11111222,99999999' 
WAVCIS,ioos:station:WAVCIS:CSI06:1,2009-01-08T17:00:00Z,28.8667,-90.4833,10.0,5.104,255.0,,'11111222,11111222,99999999' 
WAVCIS,ioos:station:WAVCIS:CSI06:1,2009-01-08T18:00:00Z,28.8667,-90.4833,10.0,5.407,260.0,,'11111222,11111222,99999999' 
WAVCIS,ioos:station:WAVCIS:CSI06:1,2009-01-08T19:00:00Z,28.8667,-90.4833,10.0,5.922,262.0,,'11111222,11111222,99999999' 
WAVCIS,ioos:station:WAVCIS:CSI06:1,2009-01-08T20:00:00Z,28.8667,-90.4833,10.0,6.249,274.0,,'11111222,11111222,99999999' 
WAVCIS,ioos:station:WAVCIS:CSI06:1,2009-01-08T21:00:00Z,28.8667,-90.4833,10.0,6.181,276.0,,'11111222,11111222,99999999' 
WAVCIS,ioos:station:WAVCIS:CSI06:1,2009-01-08T22:00:00Z,28.8667,-90.4833,10.0,6.004,280.0,,'11111222,11111222,99999999' 
WAVCIS,ioos:station:WAVCIS:CSI06:1,2009-01-08T23:00:00Z,28.8667,-90.4833,10.0,5.767,269.0,,'11111222,11111222,99999999' 
WAVCIS,ioos:station:WAVCIS:CSI06:1,2009-01-09T00:00:00Z,28.8667,-90.4833,10.0,4.869,270.0,,'11111222,11111222,99999999' 
WAVCIS,ioos:station:WAVCIS:CSI06:1,2009-01-09T01:00:00Z,28.8667,-90.4833,10.0,4.817,262.0,,'11111222,11111222,99999999' 
WAVCIS,ioos:station:WAVCIS:CSI06:1,2009-01-09T02:00:00Z,28.8667,-90.4833,10.0,4.111,258.0,,'11111222,11111222,99999999' 
WAVCIS,ioos:station:WAVCIS:CSI06:1,2009-01-09T03:00:00Z,28.8667,-90.4833,10.0,2.902,263.0,,'11111222,11111222,99999999' 
WAVCIS,ioos:station:WAVCIS:CSI06:1,2009-01-09T04:00:00Z,28.8667,-90.4833,10.0,3.592,233.0,,'11111222,11111222,99999999' 
WAVCIS,ioos:station:WAVCIS:CSI06:1,2009-01-09T05:00:00Z,28.8667,-90.4833,10.0,3.072,225.0,,'11111222,11111222,99999999' 